Flag for Ukraine Weather past 2 weeks in Chernobyl, Ukraine

Now
52 °F

Cool.


Feels Like: 51 °F
Forecast: 57 / 77 °F
Wind: 3 mph from Southwest

Location: Hostomel

Current Time: Aug 31, 2014 at 8:03:39 AM

Latest Report: Aug 31, 2014 at 7:00 AM


Visibility: 4 mi

Pressure: 30.01 "Hg

Humidity: 94%

Dew point: 50 °F

Location of ChernobylLocation

Historic Weather in Chernobyl — Graph

°F

Chernobyl temperature yesterday

Maximum temperature yesterday: 75 °F (at 4:00 PM)
Minimum temperature yesterday: 48 °F (at 5:00 AM)
Average temperature yesterday: 62 °F

Past Weeks' High & Low Weather Summary

 TemperatureHumidityPressure
High84 °F (Aug 20, 2:00 PM)100% (Aug 17, 5:00 AM)30.12 "Hg (Aug 17, 5:00 AM)
Low46 °F (Aug 23, 5:30 AM)25% (Aug 20, 2:00 PM)29.71 "Hg (Aug 24, 9:00 PM)
Average63 °F65%29.94 "Hg
* Reported Aug 16 7:00 AM — Aug 31 7:00 AM, Chernobyl, Weather by CustomWeather, © 2014

Note: Actual official high and low records may vary slightly from our data, if they occured in-between our weather recording intervals... More about our weather records

Advertising

Chernobyl weather history for previous 24 hours

 ConditionsComfort  
Time TempWeatherWind HumidityBarometerVisibility
7:00 AM
Aug 31
52 °FCool.3 mph94%30.01 "Hg4 mi
6:00 AM50 °FCool.1 mph94%30.01 "Hg4 mi
5:00 AM52 °FCool.No wind94%30.04 "Hg4 mi
4:00 AM52 °FCool.3 mph88%30.04 "Hg4 mi
3:00 AM55 °FCool.No wind77%30.04 "Hg5 mi
2:00 AM57 °FCool.3 mph72%30.04 "Hg6 mi
1:00 AM57 °FCool.3 mph72%30.07 "Hg6 mi
12:00 AM57 °FCool.3 mph72%30.04 "Hg5 mi
11:00 PM
Aug 30
59 °FCool.3 mph68%30.04 "HgN/A
10:00 PM63 °FMild.3 mph59%30.04 "HgN/A
9:00 PM66 °FMild.3 mph49%30.07 "HgN/A
8:00 PM68 °FMild.3 mph46%30.04 "HgN/A
7:00 PM72 °FMild.6 mph36%30.04 "Hg6 mi
6:00 PM73 °FMild.10 mph33%30.04 "HgN/A
5:00 PM75 °FMild.13 mph31%30.07 "HgN/A
4:00 PM75 °FMild.13 mph31%30.07 "HgN/A
3:00 PM73 °FMild.8 mph36%30.07 "HgN/A
2:00 PM73 °FMild.13 mph38%30.09 "HgN/A
1:00 PM73 °FMild.10 mph36%30.09 "HgN/A
12:00 PM70 °FMild.10 mph40%30.09 "HgN/A
11:00 AM68 °FMild.8 mph46%30.12 "HgN/A
10:00 AM64 °FMild.3 mph56%30.09 "HgN/A
9:00 AM59 °FCool.3 mph72%30.09 "HgN/A
8:00 AM54 °FCool.3 mph88%30.09 "HgN/A
Weather by CustomWeather, © 2014

See weather overviewHow to use our weather pages